Flag for Germany Weather past 2 weeks in Steinfurt, North Rhine-Westphalia, Germany

Now
52 °F

Cool.


Feels Like: 51 °F
Forecast: 47 / 57 °F
Wind: 3 mph from South

Location: Rheine-Bentlage

Current Time: Oct 25, 2014 at 8:44:18 AM

Latest Report: Oct 25, 2014 at 7:20 AM


Visibility: N/A

Pressure: 30.01 "Hg

Humidity: 94%

Dew point: 50 °F

Location of SteinfurtLocation

Historic Weather in Steinfurt — Graph

°F

Steinfurt temperature yesterday

Maximum temperature yesterday: 55 °F (at 11:20 AM)
Minimum temperature yesterday: 50 °F (at 5:20 AM)
Average temperature yesterday: 53 °F

Past Weeks' High & Low Weather Summary

 TemperatureHumidityPressure
High73 °F (Oct 19, 2:20 PM)100% (Oct 10, 9:20 PM)30.21 "Hg (Oct 10, 9:20 PM)
Low45 °F (Oct 11, 7:20 AM)56% (Oct 14, 1:20 PM)29.42 "Hg (Oct 21, 4:20 PM)
Average56 °F86%29.88 "Hg
* Reported Oct 10 7:20 AM — Oct 25 7:20 AM, Steinfurt, Weather by CustomWeather, © 2014

Note: Actual official high and low records may vary slightly from our data, if they occured in-between our weather recording intervals... More about our weather records

Advertising

Steinfurt weather history for previous 24 hours

 ConditionsComfort  
Time TempWeatherWind HumidityBarometerVisibility
7:20 AM
Oct 25
52 °FCool.3 mph94%30.01 "HgN/A
6:20 AM52 °FCool.5 mph94%30.01 "HgN/A
5:20 AM52 °FCool.5 mph94%30.01 "HgN/A
4:20 AM52 °FCool.5 mph94%30.01 "HgN/A
3:20 AM52 °FCool.5 mph94%30.01 "HgN/A
2:20 AM52 °FCool.2 mph88%30.01 "HgN/A
1:20 AM54 °FCool.5 mph77%30.04 "HgN/A
12:20 AM54 °FCool.6 mph77%30.04 "HgN/A
11:20 PM
Oct 24
54 °FCool.6 mph77%30.04 "HgN/A
10:20 PM54 °FCool.5 mph82%30.04 "HgN/A
9:20 PM54 °FCool.6 mph82%30.04 "HgN/A
8:20 PM54 °FCool.6 mph82%30.04 "HgN/A
7:20 PM54 °FCool.6 mph82%30.04 "HgN/A
6:20 PM54 °FCool.3 mph82%30.04 "HgN/A
5:20 PM55 °FCool.6 mph77%30.07 "HgN/A
4:20 PM55 °FCool.7 mph77%30.07 "HgN/A
3:20 PM55 °FCool.7 mph72%30.09 "HgN/A
2:20 PM55 °FCool.7 mph72%30.09 "HgN/A
1:20 PM55 °FCool.8 mph72%30.12 "HgN/A
12:20 PM55 °FBroken clouds.7 mph72%30.12 "HgN/A
11:20 AM55 °FPartly sunny.9 mph72%30.12 "HgN/A
10:20 AM52 °FScattered clouds.6 mph88%30.12 "HgN/A
9:20 AM52 °FScattered clouds.6 mph88%30.12 "HgN/A
8:20 AM50 °FPassing clouds.3 mph94%30.12 "HgN/A
Weather by CustomWeather, © 2014

See weather overviewHow to use our weather pages